2022-155C (54253 NORAD) Tracking and Keplerian Element Data

This shows tracking and keplerian element data for the satellite.

Feedback or suggestion? Click here.




ElementValue
Catalog54253
Name2022-155C
Epoch Orbit888
Epoch Day14.19378561
Epoch Year2023
RAAN122.9612
Inclination97.5369
Eccentricity0.0016067
Argument of Perigee84.9501
Mean Anonmoly2.4196
Mean Motion15.09682352
Decay Rate8.374E-05
L11 54253U 22155C 23014.19378561 .00008374 00000+0 52205-3 0 9992
L22 54253 97.5369 122.9612 0016067 84.9501 2.4196 15.09682352 8887



Live tracking and technical data element details for 2022-155C (NORAD 54253). 2022-155C can be tracked NOW for your location showing map with azimuth and elevation plus other details from your city location.







IsCatalogInMostPopularTable: catalog: 54253, numindb: 12
Update: records affected: 1



GetName: 54253 2022-155C

Hit Count: updated at: Fri, 27 Jan 2023 20:38:56 GMT